Skip Page Navigation
NASA JPL Caltech
NASA Logo - Jet Propulsion Laboratory + View the NASA Portal
+ Center for Near-Earth Object Studies
JPL Home Earth Solar System Stars & Galaxies Technology
JPL Solar System Dynamics
BODIES ORBITS EPHEMERIDES TOOLS PHYSICAL DATA DISCOVERY FAQ SITE MAP
JPL Small-Body Database Browser
Search: [ help ]  
30275 Eskow (2000 HP53)
Classification: Main-belt Asteroid          SPK-ID: 2030275
Ephemeris | Orbit Diagram | Orbital Elements | Mission Design | Physical Parameters | Discovery Circumstances ]

[ show orbit diagram ]
Orbital Elements at Epoch 2459200.5 (2020-Dec-17.0) TDB
Reference: JPL 24 (heliocentric ecliptic J2000)
 Element Value Uncertainty (1-sigma)   Units 
e .177570308916319 5.0824e-08  
a 2.592478123205656 9.7713e-09 au
q 2.132130982009229 1.2935e-07 au
i 2.188039465092276 3.7717e-06 deg
node 104.845639669017 0.00012449 deg
peri 265.5802450801744 0.00012494 deg
M 213.3968515506748 1.3009e-05 deg
tp 2459821.386009288921
(2022-Aug-29.88600929)
5.6909e-05 TDB
period 1524.653226811654
4.17
8.6198e-06
2.36e-08
d
yr
n .2361192654626324 1.3349e-09 deg/d
Q 3.052825264402083 1.1506e-08 au
  Orbit Determination Parameters
   # obs. used (total)      1247  
   data-arc span      10957 days (30.00 yr)  
   first obs. used      1991-03-20  
   last obs. used      2021-03-19  
   planetary ephem.      DE441  
   SB-pert. ephem.      SB441-N16  
   condition code      0  
   norm. resid. RMS      .59582  
   source      ORB  
   producer      Otto Matic  
   solution date      2021-May-04 04:28:11  

Additional Information
 Earth MOID = 1.13167 au 
 Jupiter MOID = 2.41164 au 
 T_jup = 3.395 
[ show covariance matrix ]

Ephemeris | Orbit Diagram | Orbital Elements | Mission Design | Physical Parameters | Discovery Circumstances ]

Physical Parameter Table
Parameter Symbol Value Units Sigma Reference Notes
absolute magnitude H 14.96   n/a E2021B10  

30275 Eskow           Discovered 2000 Apr. 29 by the Lincoln Laboratory Near-Earth Asteroid Research Team at Socorro.
Nicole Eskow (b. 1996) is a finalist in the 2015 Intel Science Talent Search (STS), a science competition for high school seniors, for her medicine and health project. She attends the Academy for the Advancement of Science and Technology, Hackensack, New Jersey.
NOTE: some special characters may not display properly (any characters within {} are an attempt to place the proper accent above a character)
Reference: MPC batch dated 2015-04-04Last Updated: 2015-04-07

Alternate Designations
 2000 HP53 = 1995 FC20 
Ephemeris | Orbit Diagram | Orbital Elements | Mission Design | Physical Parameters | Discovery Circumstances ]
ABOUT SSD CREDITS/AWARDS PRIVACY/COPYRIGHT GLOSSARY LINKS
FirstGov 2021-Jun-13 08:19 UT
(server date/time)  
NASA Home Page
Site Manager:   Ryan S. Park
Webmaster  Alan B. Chamberlin